Observations
| Time | Sensor | AQI | SAQ | Temp °C | Hum % | Pres Pa | CO μg/m³ | H₂S μg/m³ | NO μg/m³ | NO₂ μg/m³ | O₃ μg/m³ | SO₂ μg/m³ | CO₂e PPM | VOC PPM | PM1 μg/m³ | PM2.5 μg/m³ | PM4 μg/m³ | PM10 μg/m³ | TPS µm |
|---|---|---|---|---|---|---|---|---|---|---|---|---|---|---|---|---|---|---|---|
| Thursday 13 August 2026 | |||||||||||||||||||
| 10:58 | Trim Market St | 2 | 29.2 | 53 | 56,585 | 0 | 0 | 0.8 | 13.3 | 58.46 | 0 | 3.56 | 4.87 | 6.07 | |||||
| 10:57 | Trim Patrick St | 1 | 29 | 52 | 70,235 | 0 | 0 | 0.77 | 13 | 59.55 | 14.08 | 2 | 6.27 | 6.9 | |||||
| 10:56 | Trim Patrick St | 1 | 29 | 53 | 70,297 | 0 | 0.9 | 0.81 | 13.47 | 60.51 | 14.07 | 2.86 | 7.01 | 7.71 | |||||
| 10:55 | Trim Patrick St | 1 | 29 | 52 | 70,305 | 0 | 0 | 0.79 | 13.2 | 59.11 | 13.6 | 2.86 | 7.01 | 7.72 | |||||
| 10:54 | Trim Patrick St | 1 | 29 | 53 | 70,352 | 0 | 0 | 0.79 | 12.85 | 58.58 | 13.65 | 2.86 | 6.98 | 7.68 | |||||
| 10:54 | Trim Market St | 2 | 29 | 53 | 56,756 | 0 | 0 | 0.68 | 13.49 | 68.35 | 0 | 0 | 1.8 | 1.98 | |||||
| 10:53 | Trim Patrick St | 1 | 28.9 | 53 | 70,417 | 0 | 0 | 0.77 | 13.28 | 51.63 | 13.65 | 2 | 6.98 | 7.68 | |||||
| 10:53 | Trim Market St | 2 | 29 | 53 | 56,747 | 0 | 0 | 0.65 | 13.13 | 50.42 | 0 | 0 | 2.32 | 2.44 | |||||
| 10:52 | Trim Patrick St | 1 | 28.9 | 53 | 70,467 | 0 | 2.36 | 0.76 | 13.58 | 59.48 | 13.87 | 4.57 | 8.47 | 9.31 | |||||
| 10:51 | Trim Patrick St | 1 | 28.9 | 54 | 70,502 | 0 | 3.85 | 0.72 | 13.56 | 59.97 | 14.74 | 2.86 | 7.7 | 8.47 | |||||
| 10:51 | Trim Market St | 2 | 28.9 | 53 | 56,758 | 0 | 0 | 0.63 | 12.61 | 48.76 | 0 | 0 | 2.32 | 2.44 | |||||
| 10:50 | Trim Patrick St | 1 | 28.9 | 53 | 70,484 | 0 | 1.66 | 0.79 | 13.32 | 60.53 | 14.28 | 2.86 | 7.72 | 8.5 | |||||
| 10:49 | Trim Patrick St | 1 | 28.9 | 53 | 70,433 | 0 | 0.27 | 0.81 | 13.05 | 60.92 | 14.1 | 2.86 | 7.72 | 8.5 | |||||
| 10:49 | Trim Market St | 2 | 28.9 | 53 | 56,676 | 0 | 0 | 0.58 | 13.05 | 57.04 | 0 | 0.71 | 2.82 | 3.18 | |||||
| 10:48 | Trim Patrick St | 1 | 28.9 | 53 | 70,394 | 0 | 0.27 | 0.84 | 12.87 | 59.12 | 14.21 | 2.86 | 6.97 | 7.67 | |||||
| 10:48 | Trim Market St | 2 | 28.9 | 53 | 56,582 | 0 | 0 | 0.68 | 11.69 | 48.76 | 0 | 0.71 | 2.82 | 3.17 | |||||
| 10:47 | Trim Patrick St | 1 | 29 | 53 | 70,374 | 0 | 1.2 | 0.8 | 13.34 | 54.64 | 14.63 | 3.71 | 7.74 | 8.51 | |||||
| 10:47 | Trim Market St | 2 | 29 | 53 | 56,556 | 0 | 0 | 0.69 | 12.56 | 51.1 | 0 | 1.43 | 2.82 | 3.17 | |||||
| 10:46 | Trim Patrick St | 1 | 29.1 | 53 | 70,317 | 0 | 2.21 | 0.78 | 13.53 | 57.71 | 14.28 | 4.57 | 10.03 | 11.03 | |||||
| 10:46 | Trim Market St | 2 | 29 | 53 | 56,508 | 0 | 0 | 0.71 | 12.34 | 41.62 | 0 | 0.71 | 2.83 | 3.17 | |||||